Regional Weather Roundup
Issued by NWS

Home | Current Version | Previous Version | Text Only | Print | Product List | Glossary Off
Versions: 1 2 3 4 5 6 7 8 9 10 11 12 13 14 15 16 17 18 19 20 21 22 23 24 25 26 27 28 29 30 31 32 33 34 35 36 37 38 39 40 41 42 43 44 45 46 47 48 49 50

000
ASUS45 KCYS 040510
RWRWY

WYOMING REGIONAL WEATHER ROUNDUP
NATIONAL WEATHER SERVICE CHEYENNE WY
1100 PM MDT MON AUG 03 2015

NOTE:  "FAIR" INDICATES FEW OR NO CLOUDS BELOW 12,000 FEET
WITH NO SIGNIFICANT WEATHER AND/OR OBSTRUCTIONS TO VISIBILITY.

WYZ001-040600-
YELLOWSTONE NATIONAL PARK

CITY           SKY/WX    TMP DP  RH WIND       PRES   REMARKS
LK YELLOWSTONE   N/A     53  51  93 VRB6      30.29R
W YELLOWSTONE  NOT AVBL

$$
WYZ002>013-054>058-071-098>099-040600-
NORTHERN WYOMING

CITY           SKY/WX    TMP DP  RH WIND       PRES   REMARKS
JACKSON        NOT AVBL
CODY           FAIR      68  50  52 S15G25    30.01F
GREYBULL       FAIR      73  46  38 VRB3      29.93F
WORLAND        FAIR      67  49  52 N7        29.97S
SHERIDAN       FAIR      77  43  29 S31G51    29.90F
BUFFALO        LGT RAIN  68  48  48 W8        30.07F
GILLETTE       FAIR      70  48  45 SE8       29.97F
HULETT         FAIR      70  59  68 SE3       29.99F
NEWCASTLE      FAIR      73  55  53 MISG      29.99F THUNDER

$$
WYZ014>020-022>026-101>103-040600-
CENTRAL WYOMING

CITY           SKY/WX    TMP DP  RH WIND       PRES   REMARKS
BIG PINEY      RAIN      56  54  93 W3        30.18R FOG
PINEDALE       CLOUDY    54  54 100 CALM      30.18R
DUBOIS         LGT RAIN  54  50  87 SE7       30.20S
LANDER         RAIN      58  56  93 W9        30.07F FOG
RIVERTON       LGT RAIN  61  56  83 W3        30.09R
CASPER         FAIR      59  55  87 NW8       30.06F
DOUGLAS        FAIR      66  49  54 W12       30.04S

$$
WYZ021-027>030-104>119-040600-
SOUTHERN WYOMING

CITY           SKY/WX    TMP DP  RH WIND       PRES   REMARKS
EVANSTON       FAIR      52  49  89 SW13      30.22S
KEMMERER       MOCLDY    52  50  93 W10G18    30.21S
FORT BRIDGER   CLEAR     54  54 100 W14       30.23S
ROCK SPRINGS   CLOUDY    55  50  83 W20       30.16S
DIXON          MOCLDY    58  54  86 S3        30.21R
RAWLINS        LGT RAIN  57  53  86 SW5       30.16R
SARATOGA       CLOUDY    59  52  77 S8        30.18F
LARAMIE        LGT RAIN  55  50  83 SE15      30.21F
CHEYENNE       CLOUDY    66  50  56 SW21G26   30.16R
TORRINGTON     FAIR      75  49  39 S12       29.98R
PINE BLUFFS    FAIR      68  48  49 S12       30.09S

$$



USA.gov is the U.S. government's official web portal to all federal, state and local government web resources and services.